VA3BOO Weather Reports


time (UTC)temp
C
wind
direction
speed
KPH
gust
KPH
rain 1hr
cm
rain 24hr
cm
rain mn
cm
humidity
%
barometer
mb
20260509224505 16 208 1.6 4.8 0.00 0.00 0.00 63 1003.9
20260509224005 16 200 1.6 4.8 0.00 0.00 0.00 62 1003.9
20260509223505 16 196 1.6 14.5 0.00 0.00 0.00 61 1003.8
20260509223005 16 177 1.6 14.5 0.00 0.00 0.00 60 1004.1
20260509222504 17 175 1.6 4.8 0.00 0.00 0.00 59 1003.9
20260509222005 17 182 1.6 4.8 0.00 0.00 0.00 57 1004.0
20260509221505 17 167 1.6 4.8 0.00 0.00 0.00 57 1003.9
20260509221005 17 172 1.6 4.8 0.00 0.00 0.00 58 1003.9
20260509220504 17 178 1.6 11.3 0.00 0.00 0.00 58 1003.7
20260509220005 17 170 1.6 11.3 0.00 0.00 0.00 57 1003.6
20260509215507 17 162 1.6 6.4 0.00 0.00 0.00 58 1003.8
20260509215004 17 166 1.6 6.4 0.00 0.00 0.00 57 1003.8
20260509214504 17 160 1.6 4.8 0.00 0.00 0.00 56 1004.0
20260509214005 18 176 1.6 6.4 0.00 0.00 0.00 54 1004.0
20260509213504 17 185 1.6 6.4 0.00 0.00 0.00 54 1004.0
20260509213005 17 164 1.6 3.2 0.00 0.00 0.00 54 1003.8
20260509212504 17 187 1.6 9.7 0.00 0.00 0.00 54 1004.1
20260509212004 18 182 1.6 9.7 0.00 0.00 0.00 53 1004.1
20260509211504 18 180 1.6 4.8 0.00 0.00 0.00 52 1004.0
20260509211004 18 193 1.6 9.7 0.00 0.00 0.00 51 1004.2
20260509210504 18 186 1.6 9.7 0.00 0.00 0.00 53 1004.3
20260509210007 18 173 1.6 9.7 0.00 0.00 0.00 52 1004.4
20260509205504 18 167 1.6 9.7 0.00 0.00 0.00 50 1004.4
20260509205005 18 165 1.6 6.4 0.00 0.00 0.00 51 1004.5
20260509204504 18 186 1.6 9.7 0.00 0.00 0.00 51 1004.5
20260509204004 17 202 3.2 9.7 0.00 0.00 0.00 54 1004.4
20260509203507 18 237 3.2 9.7 0.00 0.00 0.00 51 1004.3
20260509203004 18 246 1.6 6.4 0.00 0.00 0.00 50 1004.4
20260509202507 18 184 1.6 6.4 0.00 0.00 0.00 52 1004.3
20260509202007 18 201 1.6 6.4 0.00 0.00 0.00 51 1004.5
20260509201504 18 198 3.2 6.4 0.00 0.00 0.00 51 1004.8
20260509201004 18 191 3.2 6.4 0.00 0.00 0.00 53 1004.7
20260509200504 18 174 3.2 12.9 0.00 0.00 0.00 52 1004.7
20260509200005 18 205 3.2 12.9 0.00 0.00 0.00 51 1005.0
20260509195504 18 193 3.2 11.3 0.00 0.00 0.00 52 1004.8
20260509195004 18 176 3.2 11.3 0.00 0.00 0.00 51 1004.6
20260509194504 18 177 3.2 11.3 0.00 0.00 0.00 53 1004.8
20260509194004 18 211 3.2 9.7 0.00 0.00 0.00 51 1004.8
20260509193504 18 229 3.2 11.3 0.00 0.00 0.00 51 1005.0
20260509193004 18 206 3.2 11.3 0.00 0.00 0.00 51 1005.0
20260509192504 19 157 3.2 14.5 0.00 0.00 0.00 51 1004.9
20260509192004 19 176 3.2 14.5 0.00 0.00 0.00 49 1005.0
20260509191504 19 207 3.2 12.9 0.00 0.00 0.00 50 1005.2
20260509191005 19 196 3.2 12.9 0.00 0.00 0.00 51 1005.1
20260509190504 19 193 3.2 9.7 0.00 0.00 0.00 49 1005.2
20260509190005 20 181 3.2 9.7 0.00 0.00 0.00 47 1005.3
20260509185504 20 156 1.6 4.8 0.00 0.00 0.00 49 1005.3
20260509185005 19 179 1.6 6.4 0.00 0.00 0.00 46 1005.3
20260509184505 19 177 3.2 9.7 0.00 0.00 0.00 48 1005.3
20260509184004 19 175 1.6 9.7 0.00 0.00 0.00 47 1005.4
20260509183504 19 192 3.2 9.7 0.00 0.00 0.00 48 1005.8
20260509183004 19 198 3.2 9.7 0.00 0.00 0.00 48 1005.8
20260509182504 19 156 1.6 9.7 0.00 0.00 0.00 49 1005.8
20260509182008 18 156 3.2 9.7 0.00 0.00 0.00 48 1005.9
20260509181504 18 206 3.2 9.7 0.00 0.00 0.00 49 1005.7
20260509181005 18 206 3.2 11.3 0.00 0.00 0.00 49 1005.9
20260509180504 18 202 3.2 11.3 0.00 0.00 0.00 50 1006.0
20260509180004 18 214 3.2 11.3 0.00 0.00 0.00 49 1005.9
20260509175504 18 210 3.2 11.3 0.00 0.00 0.00 49 1005.8
20260509175004 18 227 3.2 9.7 0.00 0.00 0.00 51 1006.2
20260509174505 18 196 3.2 11.3 0.00 0.00 0.00 50 1006.0
20260509174004 18 179 3.2 11.3 0.00 0.00 0.00 51 1006.1
20260509173504 18 217 1.6 14.5 0.00 0.00 0.00 54 1005.9
20260509173004 18 241 3.2 14.5 0.00 0.00 0.00 51 1006.0
20260509172507 18 224 3.2 12.9 0.00 0.00 0.00 54 1006.4
20260509172004 18 211 3.2 14.5 0.00 0.00 0.00 52 1006.1
20260509171504 17 214 3.2 14.5 0.00 0.00 0.00 54 1006.2
20260509171004 18 198 3.2 11.3 0.00 0.00 0.00 51 1006.4
20260509170504 18 194 3.2 11.3 0.00 0.00 0.00 49 1006.4
20260509170004 17 184 3.2 6.4 0.00 0.00 0.00 51 1006.4
20260509165505 18 176 3.2 6.4 0.00 0.00 0.00 49 1006.4
20260509165004 18 174 3.2 9.7 0.00 0.00 0.00 52 1006.8
20260509164505 18 176 3.2 9.7 0.00 0.00 0.00 49 1006.6
20260509164004 18 170 1.6 6.4 0.00 0.00 0.00 49 1006.9
20260509163504 18 177 1.6 6.4 0.00 0.00 0.00 50 1007.0
20260509163004 18 192 3.2 6.4 0.00 0.00 0.00 50 1006.9
20260509162504 18 167 3.2 6.4 0.00 0.00 0.00 48 1007.0
20260509162004 18 166 1.6 4.8 0.00 0.00 0.00 48 1007.0
20260509161504 18 183 1.6 4.8 0.00 0.00 0.00 50 1007.0
20260509161004 17 191 1.6 9.7 0.00 0.00 0.00 51 1007.2
20260509160507 17 201 1.6 9.7 0.00 0.00 0.00 49 1007.3
20260509160004 17 195 1.6 9.7 0.00 0.00 0.00 50 1007.3
20260509155504 17 212 3.2 9.7 0.00 0.00 0.00 49 1007.5
20260509155004 17 207 1.6 6.4 0.00 0.00 0.00 49 1007.5
20260509154504 17 197 1.6 4.8 0.00 0.00 0.00 49 1007.7
20260509154005 17 162 3.2 9.7 0.00 0.00 0.00 52 1007.8
20260509153508 16 152 3.2 9.7 0.00 0.00 0.00 50 1007.8
20260509153004 16 144 3.2 9.7 0.00 0.00 0.00 51 1007.8
20260509152504 17 204 3.2 9.7 0.00 0.00 0.00 49 1007.9
20260509152004 17 200 1.6 9.7 0.00 0.00 0.00 48 1008.2
20260509151504 16 176 3.2 9.7 0.00 0.00 0.00 46 1008.2
20260509151004 16 180 1.6 9.7 0.00 0.00 0.00 43 1008.4
20260509150504 17 226 1.6 6.4 0.00 0.00 0.00 42 1007.9
20260509150007 16 230 3.2 6.4 0.00 0.00 0.00 45 1008.2
20260509145507 16 199 1.6 6.4 0.00 0.00 0.00 43 1008.3
20260509145007 16 146 1.6 3.2 0.00 0.00 0.00 43 1008.3
20260509144504 15 144 1.6 3.2 0.00 0.00 0.00 42 1008.2
20260509144004 15 144 1.6 3.2 0.00 0.00 0.00 42 1008.2
20260509143504 15 142 1.6 3.2 0.00 0.00 0.00 43 1008.3
20260509143004 14 125 1.6 3.2 0.00 0.00 0.00 42 1008.5
20260509142504 14 117 1.6 4.8 0.00 0.00 0.00 45 1008.6
20260509142004 13 118 1.6 4.8 0.00 0.00 0.00 45 1008.3
20260509141504 13 77 1.6 4.8 0.00 0.00 0.00 46 1008.4
20260509141004 13 69 1.6 4.8 0.00 0.00 0.00 45 1008.5
20260509140504 13 84 1.6 4.8 0.00 0.00 0.00 45 1008.4
20260509140005 13 86 1.6 3.2 0.00 0.00 0.00 46 1008.5
20260509135504 13 88 1.6 3.2 0.00 0.00 0.00 46 1008.5
20260509135004 13 93 1.6 4.8 0.00 0.00 0.00 45 1008.6
20260509134504 12 93 1.6 4.8 0.00 0.00 0.00 47 1008.7
20260509134004 12 106 1.6 3.2 0.00 0.00 0.00 48 1008.8
20260509133504 11 107 1.6 3.2 0.00 0.00 0.00 50 1008.8
20260509133005 11 107 0.0 3.2 0.00 0.00 0.00 50 1008.8
20260509132504 11 106 0.0 3.2 0.00 0.00 0.00 50 1008.9
20260509132004 11 106 0.0 3.2 0.00 0.00 0.00 51 1008.9
20260509131504 11 106 0.0 3.2 0.00 0.00 0.00 51 1009.1
20260509131004 11 107 0.0 3.2 0.00 0.00 0.00 52 1009.0
20260509130504 11 107 0.0 3.2 0.00 0.00 0.00 50 1009.1
20260509130005 11 108 0.0 1.6 0.00 0.00 0.00 51 1009.0
20260509125504 11 108 0.0 1.6 0.00 0.00 0.00 50 1008.9
20260509125004 11 108 0.0 3.2 0.00 0.00 0.00 50 1008.9
20260509124507 11 107 1.6 3.2 0.00 0.00 0.00 52 1008.8
20260509124004 11 107 0.0 3.2 0.00 0.00 0.00 51 1009.0
20260509123504 10 107 0.0 1.6 0.00 0.00 0.00 52 1008.8
20260509123004 10 110 0.0 3.2 0.00 0.00 0.00 54 1009.1
20260509122504 10 115 0.0 3.2 0.00 0.00 0.00 54 1008.9
20260509122004 10 120 0.0 3.2 0.00 0.00 0.00 53 1009.2
20260509121504 11 126 0.0 1.6 0.00 0.00 0.00 51 1009.2
20260509121004 10 129 1.6 3.2 0.00 0.00 0.00 52 1009.1
20260509120504 10 140 1.6 3.2 0.00 0.00 0.00 52 1009.2
20260509120004 10 159 1.6 4.8 0.00 0.00 0.00 54 1009.3
20260509115504 10 152 0.0 4.8 0.00 0.00 0.00 51 1009.4
20260509115004 10 115 0.0 1.6 0.00 0.00 0.00 49 1009.5
20260509114504 10 115 0.0 1.6 0.00 0.00 0.00 50 1009.2
20260509114007 10 115 0.0 1.6 0.00 0.00 0.00 51 1009.3
20260509113504 8 59 0.0 3.2 0.00 0.00 0.00 56 1009.5
20260509113004 7 38 0.0 3.2 0.00 0.00 0.00 60 1009.1
20260509112504 7 14 0.0 3.2 0.00 0.00 0.00 63 1009.3
20260509112004 6 3 0.0 1.6 0.00 0.00 0.00 66 1009.3
20260509111504 6 0 0.0 0.0 0.00 0.00 0.00 66 1009.2
20260509111004 6 0 0.0 0.0 0.00 0.00 0.00 70 1009.3
20260509110504 6 0 0.0 0.0 0.00 0.00 0.00 70 1009.3
20260509110007 5 0 0.0 0.0 0.00 0.00 0.00 69 1009.2
20260509105504 5 0 0.0 0.0 0.00 0.00 0.00 70 1009.2
20260509105007 5 0 0.0 0.0 0.00 0.00 0.00 71 1009.2
20260509104504 5 0 0.0 0.0 0.00 0.00 0.00 72 1009.2
20260509104007 5 0 0.0 0.0 0.00 0.00 0.00 71 1009.0
20260509103504 4 0 0.0 0.0 0.00 0.00 0.00 72 1009.0
20260509103004 4 0 0.0 0.0 0.00 0.00 0.00 74 1008.9
20260509102504 4 0 0.0 0.0 0.00 0.00 0.00 73 1008.8
20260509102004 4 0 0.0 0.0 0.00 0.00 0.00 72 1008.9
20260509101504 4 0 0.0 0.0 0.00 0.00 0.00 71 1008.6
20260509101004 4 0 0.0 0.0 0.00 0.00 0.00 71 1008.7
20260509100504 4 0 0.0 0.0 0.00 0.00 0.00 70 1008.6
20260509100005 4 0 0.0 0.0 0.00 0.00 0.00 69 1008.8
20260509095504 4 0 0.0 0.0 0.00 0.00 0.00 69 1008.8
20260509095004 4 0 0.0 0.0 0.00 0.00 0.00 71 1008.7
20260509094504 4 0 0.0 0.0 0.00 0.00 0.00 72 1008.8
20260509094004 4 0 0.0 0.0 0.00 0.00 0.00 74 1008.8
20260509093504 4 0 0.0 0.0 0.00 0.00 0.00 73 1008.9
20260509093004 4 3 0.0 1.6 0.00 0.00 0.00 72 1008.8
20260509092507 4 3 0.0 1.6 0.00 0.00 0.00 72 1008.8
20260509092004 5 3 0.0 3.2 0.00 0.00 0.00 72 1009.0
20260509091504 5 3 0.0 3.2 0.00 0.00 0.00 73 1008.9
20260509091004 5 3 0.0 1.6 0.00 0.00 0.00 73 1008.9
20260509090504 4 42 0.0 1.6 0.00 0.00 0.00 73 1009.0
20260509090004 4 81 0.0 1.6 0.00 0.00 0.00 73 1009.0
20260509085504 5 0 0.0 0.0 0.00 0.00 0.00 73 1009.1
20260509085004 5 0 0.0 0.0 0.00 0.00 0.00 73 1009.1
20260509084504 5 81 0.0 3.2 0.00 0.00 0.00 74 1009.2
20260509084004 5 75 0.0 3.2 0.00 0.00 0.00 74 1008.9
20260509083504 5 64 0.0 1.6 0.00 0.00 0.00 75 1009.3
20260509083007 5 64 0.0 1.6 0.00 0.00 0.00 74 1009.3
20260509082507 5 64 0.0 1.6 0.00 0.00 0.00 73 1009.3
20260509082007 5 64 0.0 1.6 0.00 0.00 0.00 73 1009.3
20260509081504 5 64 0.0 1.6 0.00 0.00 0.00 73 1009.4
20260509081004 5 39 0.0 1.6 0.00 0.00 0.00 72 1009.3
20260509080507 5 350 0.0 3.2 0.00 0.00 0.00 70 1009.3
20260509080004 5 220 0.0 6.4 0.00 0.00 0.00 69 1009.3
20260509075504 5 152 1.6 6.4 0.00 0.00 0.00 69 1009.3
20260509075004 5 95 1.6 3.2 0.00 0.00 0.00 69 1009.3
20260509074504 5 327 1.6 3.2 0.00 0.00 0.00 68 1009.5
20260509074004 5 277 1.6 3.2 0.00 0.00 0.00 70 1009.5
20260509073504 5 280 1.6 4.8 0.00 0.00 0.00 71 1009.6
20260509073004 5 293 1.6 4.8 0.00 0.00 0.00 72 1009.5
20260509072504 5 298 1.6 3.2 0.00 0.00 0.00 75 1009.5
20260509072007 5 289 1.6 3.2 0.00 0.00 0.00 75 1009.6
20260509071504 5 294 0.0 3.2 0.00 0.00 0.00 76 1009.5
20260509071004 5 298 1.6 3.2 0.00 0.00 0.00 75 1009.5
20260509070504 5 292 1.6 4.8 0.00 0.00 0.00 75 1009.5
20260509070004 5 291 1.6 4.8 0.00 0.00 0.00 75 1009.5
20260509065504 5 252 0.0 3.2 0.00 0.00 0.00 75 1009.6
20260509065004 5 202 0.0 1.6 0.00 0.00 0.00 76 1009.6
20260509064507 5 167 0.0 1.6 0.00 0.00 0.00 77 1009.7
20260509064004 5 165 0.0 1.6 0.00 0.00 0.00 79 1009.6
20260509063504 4 164 0.0 1.6 0.00 0.00 0.00 82 1009.6
20260509063004 4 164 0.0 1.6 0.00 0.00 0.00 84 1009.8
20260509062504 4 164 0.0 1.6 0.00 0.00 0.00 86 1009.8
20260509062004 3 164 0.0 1.6 0.00 0.00 0.00 87 1009.8
20260509061504 3 0 0.0 0.0 0.00 0.00 0.00 88 1009.7
20260509061004 3 0 0.0 0.0 0.00 0.00 0.00 88 1009.8
20260509060504 3 0 0.0 0.0 0.00 0.00 0.00 87 1010.0
20260509060005 3 0 0.0 0.0 0.00 0.00 0.00 87 1010.1
20260509055507 3 0 0.0 0.0 0.00 0.00 0.00 88 1009.9
20260509055004 3 0 0.0 0.0 0.00 0.00 0.00 89 1010.2
20260509054504 3 0 0.0 0.0 0.00 0.00 0.00 88 1010.3
20260509054007 3 0 0.0 0.0 0.00 0.00 0.00 89 1010.4
20260509053504 3 0 0.0 0.0 0.00 0.00 0.00 89 1010.4
20260509053004 3 0 0.0 0.0 0.00 0.00 0.00 90 1010.4
20260509052504 3 0 0.0 0.0 0.00 0.00 0.00 91 1010.6
20260509052004 3 0 0.0 0.0 0.00 0.00 0.00 92 1010.4
20260509051504 3 0 0.0 0.0 0.00 0.00 0.00 92 1010.3
20260509051007 3 0 0.0 0.0 0.00 0.00 0.00 91 1010.5
20260509050504 3 0 0.0 0.0 0.00 0.00 0.00 91 1010.3
20260509050004 3 0 0.0 0.0 0.00 0.00 0.00 91 1010.3
20260509045504 3 0 0.0 0.0 0.00 0.00 0.00 90 1010.3
20260509045004 3 0 0.0 0.0 0.00 0.00 0.00 90 1010.6
20260509044504 3 0 0.0 0.0 0.00 0.00 0.00 90 1010.5
20260509044004 3 0 0.0 0.0 0.00 0.00 0.00 90 1010.7
20260509043504 3 0 0.0 0.0 0.00 0.00 0.00 89 1010.7
20260509043004 3 0 0.0 0.0 0.00 0.00 0.00 89 1010.5
20260509042504 3 0 0.0 0.0 0.00 0.00 0.00 89 1010.5
20260509042007 3 0 0.0 0.0 0.00 0.00 0.00 89 1010.6
20260509041504 3 0 0.0 0.0 0.00 0.00 0.00 88 1010.7
20260509041004 3 0 0.0 0.0 0.00 0.00 0.00 87 1010.5
20260509040504 3 0 0.0 0.0 0.00 0.00 0.00 87 1010.6
20260509040005 3 0 0.0 0.0 0.00 0.00 0.00 87 1010.5
20260509035504 3 0 0.0 0.0 0.00 0.00 0.00 87 1010.6
20260509035007 3 0 0.0 0.0 0.00 0.00 0.00 86 1010.6
20260509034504 3 0 0.0 0.0 0.00 0.00 0.00 85 1010.6
20260509034004 4 0 0.0 0.0 0.00 0.00 0.00 84 1010.6
20260509033507 4 0 0.0 0.0 0.00 0.00 0.00 84 1010.5
20260509033004 4 0 0.0 0.0 0.00 0.00 0.00 84 1010.6
20260509032504 4 0 0.0 0.0 0.00 0.00 0.00 83 1010.5
20260509032004 4 0 0.0 0.0 0.00 0.00 0.00 83 1010.5
20260509031507 5 0 0.0 0.0 0.00 0.00 0.00 81 1010.5
20260509031004 5 0 0.0 0.0 0.00 0.00 0.00 80 1010.5
20260509030504 5 0 0.0 0.0 0.00 0.00 0.00 80 1010.6
20260509030004 5 164 0.0 1.6 0.00 0.00 0.00 78 1010.7
20260509025504 5 164 0.0 1.6 0.00 0.00 0.00 78 1010.7
20260509025004 5 164 0.0 1.6 0.00 0.00 0.00 78 1010.8
20260509024504 5 164 0.0 1.6 0.00 0.00 0.00 79 1010.7
20260509024007 6 164 0.0 1.6 0.00 0.00 0.00 79 1010.7
20260509023507 6 164 0.0 4.8 0.00 0.00 0.00 80 1010.8
20260509023004 5 164 0.0 4.8 0.00 0.00 0.00 80 1010.8
20260509022504 5 164 0.0 1.6 0.00 0.00 0.00 79 1011.0
20260509022004 5 164 0.0 1.6 0.00 0.00 0.00 79 1010.8
20260509021504 5 164 0.0 1.6 0.00 0.00 0.00 79 1010.8
20260509021004 5 164 0.0 1.6 0.00 0.00 0.00 78 1010.9
20260509020507 5 164 0.0 1.6 0.00 0.00 0.00 78 1011.0
20260509020004 5 164 0.0 1.6 0.00 0.00 0.00 78 1010.9
20260509015504 5 164 0.0 1.6 0.00 0.00 0.00 78 1010.9
20260509015007 5 0 0.0 0.0 0.00 0.00 0.00 78 1010.9
20260509014504 5 0 0.0 0.0 0.00 0.00 0.00 78 1010.7
20260509014004 5 0 0.0 0.0 0.00 0.00 0.00 77 1010.8
20260509013504 5 0 0.0 0.0 0.00 0.00 0.00 76 1010.8
20260509013004 5 0 0.0 0.0 0.00 0.00 0.00 76 1010.8
20260509012504 6 164 0.0 3.2 0.00 0.00 0.00 78 1010.6
20260509012004 6 164 0.0 3.2 0.00 0.00 0.00 77 1010.7
20260509011504 6 0 0.0 0.0 0.00 0.00 0.00 78 1010.5
20260509011004 6 0 0.0 0.0 0.00 0.00 0.00 77 1010.5
20260509010504 6 0 0.0 0.0 0.00 0.00 0.00 76 1010.5
20260509010004 6 0 0.0 0.0 0.00 0.00 0.00 76 1010.5
20260509005504 6 206 0.0 1.6 0.00 0.00 0.00 75 1010.3
20260509005004 6 206 0.0 1.6 0.00 0.00 0.00 73 1010.4
20260509004504 6 0 0.0 0.0 0.00 0.00 0.00 71 1010.2
20260509004004 6 0 0.0 0.0 0.00 0.00 0.00 69 1010.3
20260509003504 7 214 0.0 1.6 0.00 0.00 0.00 70 1010.2
20260509003004 7 215 0.0 1.6 0.00 0.00 0.00 71 1010.1
20260509002504 7 217 0.0 1.6 0.00 0.00 0.00 70 1010.2
20260509002004 7 219 0.0 1.6 0.00 0.00 0.00 68 1010.0
20260509001504 7 197 0.0 3.2 0.00 0.00 0.00 66 1010.4
20260509001004 7 198 0.0 3.2 0.00 0.00 0.00 65 1010.0
20260509000504 7 192 0.0 3.2 0.00 0.00 0.00 63 1010.2
20260509000004 8 206 1.6 6.4 0.00 0.00 0.00 63 1010.1
20260508235504 8 226 1.6 6.4 0.00 0.00 0.00 62 1010.1
20260508235004 8 203 0.0 3.2 0.00 0.00 0.00 61 1010.0
20260508234504 8 194 0.0 4.8 0.00 0.00 0.00 60 1010.0
20260508234004 8 169 1.6 6.4 0.00 0.00 0.00 60 1010.1
20260508233504 8 166 1.6 6.4 0.00 0.00 0.00 60 1009.8
20260508233004 8 183 1.6 6.4 0.00 0.00 0.00 60 1009.9
20260508232504 9 182 1.6 6.4 0.00 0.00 0.00 59 1009.9
20260508232004 9 142 1.6 6.4 0.00 0.00 0.00 59 1009.9
20260508231504 9 147 0.0 3.2 0.00 0.00 0.00 61 1009.9
20260508231004 9 179 1.6 4.8 0.00 0.00 0.00 62 1009.9
20260508230507 9 200 1.6 6.4 0.00 0.00 0.00 62 1009.9
20260508230004 9 191 1.6 9.7 0.00 0.00 0.00 63 1009.8
20260508225504 9 172 1.6 9.7 0.00 0.00 0.00 64 1010.1
20260508225004 9 135 1.6 4.8 0.00 0.00 0.00 64 1010.1